Theta_e
310 310 309 308 307 306 305 304 303 302 301 302 302 303 305 306 306 305 309 315 316 313 316 318 316 316 317 316 309 318 316 317 315 310 309 309 307 311 309 311 309 307 305 304 306 301 296 316 314 308 318 321 320 320
309 309 308 307 306 305 305 303 302 301 300 300 302 303 303 305 305 304 309 317 316 314 314 315 316 316 314 316 317 321 318 319 318 312 314 315 307 311 309 303 313 304 309 306 305 304 318 321 321 322 320 319 321 321
309 308 307 307 306 305 304 303 301 300 299 300 302 302 302 304 304 304 310 315 315 310 308 309 312 314 317 315 320 314 320 323 325 324 318 315 308 312 304 305 307 312 315 308 309 310 316 320 322 323 322 322 321 322
307 308 307 306 306 305 304 302 301 300 300 300 301 302 302 303 303 303 307 312 313 310 301 304 313 310 315 321 321 321 320 326 327 321 319 315 309 316 309 310 308 312 315 310 310 312 315 318 322 322 323 322 321 320
307 307 307 306 305 305 304 302 301 300 300 300 302 302 301 302 303 304 307 311 314 309 302 305 312 314 315 321 319 321 324 322 317 314 314 313 317 314 315 312 308 314 311 308 305 313 314 314 322 324 322 322 322 319
306 307 306 305 305 304 303 303 301 300 300 301 302 302 302 302 302 304 303 310 314 315 306 302 310 312 315 319 316 314 316 315 314 312 313 316 313 313 308 305 312 314 317 320 314 317 318 320 323 324 322 320 319 319
306 305 305 305 304 304 303 303 301 301 301 302 303 301 302 302 303 303 302 307 306 315 305 299 303 310 314 316 314 314 316 314 311 311 307 310 311 309 306 302 310 312 313 315 317 316 314 318 314 322 320 321 319 321
305 305 305 304 304 304 303 302 302 302 302 303 302 302 302 303 302 301 309 304 306 309 306 299 301 306 312 307 307 314 310 311 310 308 308 304 308 307 300 305 308 309 310 310 314 318 316 315 319 320 322 320 318 317
304 305 304 304 304 303 303 304 303 303 304 303 303 302 303 300 297 304 306 305 314 308 300 299 298 299 310 309 311 308 311 302 310 303 304 306 301 299 303 306 305 306 307 307 310 315 315 315 317 318 318 318 316 315
304 304 304 304 304 303 303 304 304 304 303 303 301 298 293 299 308 308 305 305 304 305 304 299 306 302 307 306 304 305 306 302 299 302 307 301 300 308 310 311 310 310 310 310 308 308 312 312 315 316 317 317 317 314
303 303 304 304 304 304 304 304 304 304 303 300 298 300 305 306 306 301 295 294 298 295 299 300 302 303 309 303 303 307 303 303 296 301 300 300 299 305 311 310 311 312 313 313 315 314 315 315 316 317 316 316 315 314
302 302 302 303 304 304 305 305 304 302 300 301 304 306 307 303 298 292 292 294 292 292 297 297 300 307 306 312 305 305 301 302 295 305 300 296 303 309 311 312 313 314 313 313 316 315 316 317 318 318 317 315 315 313
301 302 302 303 304 304 304 305 304 302 303 306 302 299 298 298 290 287 284 288 290 295 297 297 296 304 305 307 305 303 298 297 307 300 297 301 311 311 314 314 314 313 314 314 315 316 317 318 318 318 315 315 314 312
302 302 302 302 304 304 304 305 303 303 303 299 294 286 290 288 291 292 293 294 299 300 298 298 298 301 305 301 304 296 300 303 295 293 294 302 309 312 312 313 313 312 312 313 314 315 316 317 316 315 314 314 312 312
301 301 301 302 303 304 304 304 303 304 302 295 294 288 289 295 297 298 298 298 302 305 302 298 300 302 300 299 300 299 295 292 295 294 301 308 310 310 311 312 313 313 314 314 315 315 316 316 314 312 313 313 314 314
301 300 299 302 303 303 303 302 302 304 300 297 295 291 295 293 293 295 297 298 303 304 304 303 296 294 294 297 295 294 292 292 297 305 309 311 310 311 311 312 312 315 315 316 316 316 315 313 312 312 313 313 313 314
300 297 300 301 301 301 301 301 300 295 294 291 293 299 298 296 295 297 300 299 305 302 298 300 293 291 300 293 292 299 296 301 306 308 310 310 310 310 311 312 313 313 315 316 315 315 314 313 313 313 313 314 313 314
298 301 301 300 302 301 302 300 296 294 287 294 291 294 298 299 297 298 300 302 301 301 301 297 302 295 293 290 293 301 305 306 307 308 310 310 311 311 311 311 311 313 314 314 313 312 312 310 308 308 309 310 311 313
299 300 301 301 301 299 294 295 297 289 291 294 297 298 298 299 301 301 302 303 304 305 302 300 295 295 297 302 302 302 303 305 303 305 307 310 312 311 311 311 311 311 311 310 310 308 308 308 308 310 311 310 310 314
301 301 301 301 302 297 292 293 300 293 289 292 295 293 294 295 298 298 298 299 299 299 295 293 294 298 300 303 306 305 306 307 305 303 304 305 308 309 311 311 312 312 311 311 311 300 310 310 311 310 310 309 309 309
299 300 300 302 301 299 297 294 292 295 295 293 295 295 294 296 295 295 295 299 296 294 293 297 297 300 304 304 306 306 304 304 303 303 302 302 305 305 305 307 309 309 309 308 308 307 303 308 308 311 310 310 310 311
299 299 298 299 296 295 295 299 295 296 294 294 293 294 292 291 292 294 298 294 293 294 296 297 298 298 299 300 301 303 303 304 305 303 296 298 301 302 303 304 304 304 305 306 306 304 306 308 309 309 307 308 306 311
299 299 299 297 290 290 289 298 291 292 288 290 293 290 290 291 294 297 292 294 296 300 301 300 299 301 300 301 301 302 302 302 301 302 302 302 302 302 302 302 303 302 302 304 306 305 306 301 304 306 308 307 307 307
298 296 291 291 291 288 293 289 293 290 290 289 289 287 289 292 295 292 289 293 297 301 301 300 301 299 300 301 300 301 302 303 301 302 302 301 300 301 302 302 302 303 303 303 303 304 305 305 300 305 306 305 306 306
289 288 290 286 291 288 286 288 288 289 287 289 287 289 292 295 289 289 289 292 293 296 297 298 298 298 297 298 299 300 303 302 300 300 302 303 303 303 303 303 304 305 306 304 304 303 303 304 304 304 304 304 304 304
285 288 288 289 289 287 289 285 286 287 289 287 289 295 296 293 287 286 290 292 294 295 294 293 294 295 296 297 297 298 299 301 300 299 301 302 302 301 301 300 301 303 307 306 305 304 304 304 303 303 302 303 293 301
285 287 292 296 293 292 291 293 293 291 287 287 291 291 291 285 286 289 293 294 293 294 294 294 293 292 291 292 294 295 296 297 296 296 299 300 301 302 301 300 300 303 306 306 306 305 305 304 304 304 303 304 305 306
289 290 286 290 292 293 288 289 288 288 288 290 290 286 285 285 286 291 293 294 294 294 293 293 294 293 292 292 293 293 293 295 295 296 297 298 300 300 301 301 302 294 302 305 305 305 305 305 305 305 305 304 305 307
290 294 293 289 290 291 290 290 288 289 291 289 288 288 287 290 293 292 293 294 294 293 291 290 290 292 292 292 293 293 293 292 291 290 290 290 293 296 300 301 300 302 303 303 294 296 304 304 305 306 306 306 307 307
290 294 291 290 289 288 290 293 292 294 296 295 294 292 291 292 294 297 296 294 292 291 291 291 291 290 289 289 290 292 295 295 295 293 291 291 293 298 300 299 299 300 301 302 303 304 289 296 298 302 303 307 308 307
291 291 289 289 289 291 294 298 298 297 295 294 294 291 290 291 294 298 296 295 294 293 290 289 289 290 290 290 289 289 289 295 296 296 296 296 296 297 298 299 301 301 301 301 302 302 303 302 302 302 303 305 306 304
290 290 290 288 290 294 295 293 294 292 292 291 291 292 291 290 287 293 296 296 293 290 289 289 288 288 291 292 293 294 290 294 295 295 295 297 299 299 299 300 301 301 301 300 301 303 303 302 303 303 304 305 306 307
293 294 293 292 291 291 294 293 291 290 291 290 290 292 291 289 286 293 299 299 296 294 293 293 292 291 291 292 294 295 293 294 294 290 287 286 289 294 303 304 302 301 300 300 301 303 303 303 303 303 305 305 306 306
Wind_Speed
18 19 20 21 20 17 15 13 10 7 3 4 5 6 7 9 11 7 3 3 5 3 3 2 2 2 2 3 6 6 5 5 4 7 7 4 7 4 4 3 4 7 5 6 3 9 12 4 3 5 7 3 3 3
19 19 19 19 19 17 14 11 9 7 2 4 5 5 6 7 9 8 2 0 3 5 7 3 6 7 5 6 6 3 5 3 5 5 2 2 5 3 6 6 3 5 3 5 4 6 3 1 5 3 1 3 2 2
17 19 19 18 18 15 14 12 10 5 5 6 5 5 5 6 7 8 2 2 4 3 5 5 5 5 2 3 3 5 3 4 2 4 3 2 5 4 6 8 5 5 3 5 2 5 4 5 6 7 3 1 4 5
19 21 21 20 16 14 14 14 11 8 8 8 6 4 4 5 6 7 2 2 4 3 4 5 0 4 1 3 4 4 5 1 2 3 3 4 6 1 4 5 6 5 7 6 9 11 6 8 5 3 5 5 6 5
17 21 21 20 16 14 14 14 11 10 8 8 6 5 4 4 6 6 3 1 2 6 4 1 1 2 3 5 4 3 3 3 2 3 4 2 1 4 1 3 8 6 8 7 9 9 5 4 2 6 8 8 6 7
16 21 20 18 16 16 14 13 13 11 9 9 6 4 3 4 6 5 5 4 2 3 4 2 4 2 4 6 6 4 2 1 2 3 1 1 3 4 5 9 8 4 9 8 8 4 6 2 3 7 6 7 6 5
18 18 17 17 16 15 14 14 13 12 11 9 5 3 3 4 6 4 5 5 2 3 4 4 4 4 4 7 4 4 2 1 3 1 4 3 4 4 6 13 12 8 9 7 5 4 5 7 4 7 8 8 6 5
17 16 16 15 14 13 13 14 13 12 11 8 5 3 3 4 8 5 3 8 5 4 3 3 3 6 6 6 6 1 4 3 3 1 2 5 3 4 6 8 11 7 7 8 7 9 5 4 6 9 9 9 8 5
16 15 14 14 14 13 12 12 13 12 9 7 5 3 4 4 4 4 7 8 3 5 3 3 5 5 6 3 2 4 3 5 3 5 4 4 6 8 5 7 6 6 6 4 9 10 6 9 11 10 10 9 6 5
15 14 14 13 12 13 12 10 11 13 10 7 6 5 4 3 10 7 4 5 5 4 3 5 1 4 7 7 7 5 4 5 4 5 5 6 9 10 9 7 6 5 6 6 7 11 12 11 11 11 10 7 6 6
15 13 12 12 13 13 13 12 14 13 8 4 5 2 5 4 4 3 4 5 4 5 6 4 6 4 3 7 6 4 4 4 4 6 5 5 5 7 10 9 10 12 9 7 9 7 11 12 12 11 10 8 7 6
15 12 10 10 12 15 14 12 15 8 3 2 3 2 4 4 3 5 5 4 6 6 6 7 6 2 4 2 4 5 4 4 6 7 5 4 5 7 5 3 3 6 11 10 9 8 9 10 10 11 10 9 8 8
10 10 8 7 13 14 14 14 14 4 3 3 4 5 3 3 3 7 10 6 5 6 6 6 8 5 4 4 2 5 7 6 4 5 5 4 5 4 1 4 3 4 7 6 7 6 8 11 12 12 10 9 9 7
14 12 9 7 11 13 13 12 10 4 4 4 5 4 5 5 6 4 3 4 5 3 6 6 7 4 2 6 3 5 3 2 6 6 7 6 5 3 4 4 5 4 8 9 8 8 12 13 13 11 10 10 8 7
16 15 11 7 11 11 10 8 7 5 3 3 3 4 5 1 2 4 3 4 4 3 5 5 3 4 5 4 5 3 5 7 6 7 3 6 5 6 6 5 5 3 5 7 8 10 12 13 12 12 11 9 7 6
19 12 3 9 9 9 9 7 3 2 2 2 1 3 3 5 5 5 4 5 3 3 3 2 4 5 6 4 6 9 6 5 4 3 3 3 5 6 5 5 4 3 5 6 8 10 11 12 12 11 10 7 7 6
6 3 5 7 8 10 7 3 4 4 2 2 3 1 1 2 5 5 3 4 2 4 4 2 5 5 2 6 6 2 3 5 4 3 4 5 6 6 5 1 2 4 5 7 8 10 11 10 8 7 7 7 7 6
4 9 7 2 0 3 2 2 2 2 2 2 4 5 2 1 3 4 3 1 2 2 3 0 1 4 4 4 5 5 2 3 3 3 4 4 5 5 5 5 5 4 6 6 7 8 8 8 7 5 4 4 4 3
6 6 8 4 1 2 3 3 1 3 3 2 2 2 2 1 0 1 1 2 1 1 1 2 4 4 3 1 2 3 3 2 3 3 4 3 3 4 5 5 5 5 6 6 7 6 6 5 3 2 2 3 4 2
11 10 9 6 3 2 4 3 3 3 4 2 2 4 4 4 3 4 5 4 4 3 5 5 5 3 2 1 2 1 0 1 3 3 3 4 2 2 1 3 1 4 4 5 4 3 6 3 5 6 6 5 5 6
5 4 6 3 2 2 1 3 3 1 3 3 3 4 4 4 6 6 6 5 6 5 6 5 6 5 2 4 3 3 5 6 6 6 6 5 5 4 4 4 5 5 6 6 5 5 2 6 6 10 6 7 6 4
3 4 2 1 2 3 3 2 0 4 3 3 4 4 4 6 6 6 3 6 7 7 6 6 6 5 5 6 6 7 8 8 9 7 4 6 8 8 8 7 8 8 8 7 7 5 9 8 7 6 6 4 3 4
5 3 2 3 3 2 2 2 4 4 5 5 4 4 4 4 3 3 5 5 4 2 3 3 5 6 7 9 8 9 9 9 9 9 9 9 9 9 10 10 10 10 10 9 8 9 9 6 4 8 8 6 7 6
1 2 2 2 3 2 3 4 2 2 3 3 3 3 4 3 5 4 4 3 4 1 1 2 3 5 5 6 7 5 4 4 7 8 8 9 9 10 11 10 10 10 10 9 10 10 10 10 10 10 9 9 9 8
2 1 2 1 2 3 4 5 5 4 2 3 4 4 4 4 4 3 2 4 3 1 2 4 5 6 7 8 8 8 8 7 8 9 9 9 10 9 10 10 10 10 9 10 11 12 11 11 11 12 12 12 13 12
0 2 1 2 2 1 1 1 2 2 1 2 2 1 2 2 3 1 4 2 1 1 3 5 7 9 9 10 11 10 10 9 10 11 11 10 11 12 13 13 12 12 11 11 11 13 14 13 13 15 13 14 9 13
1 3 2 0 2 2 2 1 1 1 1 0 2 3 2 4 2 3 2 3 3 3 6 6 6 8 8 9 10 10 10 9 10 11 12 12 12 12 12 13 15 12 12 14 13 12 14 14 14 14 14 13 13 12
2 2 2 3 1 2 2 2 2 3 2 2 2 1 3 4 3 1 3 3 5 5 6 6 6 7 8 9 9 9 9 9 12 12 11 12 13 13 15 13 14 16 14 14 12 11 13 14 14 14 13 13 13 12
1 1 2 2 3 1 3 3 2 1 1 1 1 1 1 1 2 2 2 4 5 5 6 7 6 6 7 7 8 8 8 9 10 15 17 13 11 11 11 12 12 12 13 15 16 14 16 13 12 10 13 12 12 11
4 5 2 3 2 2 2 1 2 2 1 1 1 2 1 1 2 1 3 4 6 6 6 7 7 7 8 8 9 11 8 8 8 11 13 14 13 11 10 11 11 11 11 11 14 15 12 11 12 11 10 7 7 8
1 1 1 1 1 1 2 3 3 3 2 3 4 2 1 0 2 0 4 5 6 6 7 9 9 7 7 9 9 11 11 9 12 16 15 13 14 14 12 11 9 8 10 12 11 12 12 11 13 16 15 15 14 10
2 2 2 2 3 3 3 2 2 1 1 0 1 2 1 1 1 1 2 5 8 8 8 8 8 12 12 10 11 10 13 14 14 14 19 13 9 9 9 8 8 8 10 8 9 13 14 14 12 15 16 17 15 12
2 2 2 3 2 3 4 3 3 1 2 1 1 2 2 2 2 2 3 2 7 10 9 10 9 9 13 15 13 13 15 15 20 17 10 5 4 6 4 3 5 8 10 8 9 12 13 15 15 17 17 16 14 11
Wind_Direction
176 173 168 163 162 159 162 146 135 129 95 350 329 338 347 355 359 323 62 349 307 288 90 338 6 287 194 241 257 81 211 189 214 241 249 194 263 189 257 352 271 261 262 263 315 284 283 57 145 266 21 50 69 67
166 163 164 165 163 164 161 150 139 137 160 263 291 312 333 350 353 329 223 56 308 274 20 335 308 299 321 6 316 176 352 336 3 261 233 308 221 194 278 232 174 244 301 326 258 315 61 17 278 24 318 356 91 121
171 165 167 169 168 166 161 151 129 163 213 240 256 290 316 339 352 338 329 348 234 269 232 226 208 118 236 242 292 291 131 357 186 331 335 307 247 283 232 240 270 169 178 250 266 264 280 282 243 232 202 239 134 122
179 169 166 168 172 172 165 143 155 190 214 227 242 268 295 320 337 324 287 25 276 305 270 118 186 220 3 221 217 265 309 154 292 262 265 256 256 231 252 324 257 11 159 253 258 265 257 242 237 217 175 167 151 130
180 176 173 167 171 172 161 154 164 192 211 226 228 253 279 309 322 280 268 264 305 304 340 52 210 81 223 205 178 155 175 259 249 223 230 223 41 226 123 281 246 186 255 237 278 327 264 320 132 170 171 172 152 147
180 169 162 164 170 167 161 164 178 190 205 226 223 242 286 314 314 238 192 171 218 263 276 244 84 150 157 170 159 132 116 254 289 303 320 136 41 279 253 256 268 256 251 270 281 345 282 307 182 179 176 146 142 126
158 161 164 168 173 163 165 174 182 187 203 209 205 229 282 309 274 287 3 34 19 241 244 235 179 134 171 161 163 166 169 99 305 319 237 282 203 253 263 260 266 238 255 251 237 224 203 191 203 176 153 129 129 120
158 159 163 169 166 163 174 183 180 184 197 186 188 217 268 286 274 245 131 211 263 262 248 254 141 186 190 182 177 208 193 203 169 273 198 233 154 233 256 251 255 258 259 243 222 210 297 184 170 160 153 157 156 139
157 155 159 166 165 166 172 174 174 180 173 168 176 210 215 226 205 103 109 143 226 302 273 233 201 160 174 150 104 166 242 215 92 234 211 212 210 224 238 252 229 215 215 235 214 201 207 190 187 172 171 174 168 128
148 153 156 156 161 162 164 164 172 157 153 159 203 204 170 139 113 154 173 186 184 193 221 257 16 165 215 177 181 156 198 233 221 187 119 228 246 241 239 240 242 212 212 211 216 210 211 207 185 179 177 162 129 99
134 138 149 165 165 166 159 158 148 134 160 205 195 137 70 137 207 205 183 217 165 209 196 224 222 164 198 196 173 238 176 174 234 138 227 207 246 226 232 239 242 237 225 231 233 238 211 211 189 175 158 142 129 112
128 124 115 156 164 168 163 161 151 192 175 35 28 102 152 206 191 188 198 168 219 212 157 196 169 269 131 269 222 175 217 195 241 127 218 233 230 215 208 264 304 232 213 219 209 218 205 201 169 163 154 146 130 118
153 142 113 143 160 161 159 157 179 58 180 187 215 163 198 146 174 204 187 185 191 169 166 177 165 171 159 227 213 198 213 215 108 213 220 217 101 144 2 299 271 207 190 184 182 181 166 156 157 157 149 142 138 131
168 147 126 130 145 152 155 163 173 191 257 222 164 144 215 182 226 198 233 133 84 157 156 181 149 201 140 188 178 218 199 173 224 218 229 210 104 16 347 327 273 211 206 208 198 186 171 161 155 150 148 147 148 152
133 142 154 148 145 146 147 159 181 214 258 207 201 187 191 141 131 133 94 158 137 112 158 159 161 225 161 199 211 205 197 235 221 235 160 60 350 332 328 323 305 236 194 196 189 182 171 160 158 151 151 157 163 162
100 92 77 144 126 131 134 136 191 240 241 236 109 175 159 179 142 165 169 131 139 144 153 219 161 201 201 231 192 209 225 219 127 60 45 18 2 353 335 325 300 236 174 166 175 171 163 165 162 156 163 169 186 194
100 95 164 112 105 121 154 39 349 32 320 257 182 254 32 1 135 122 140 99 151 198 171 183 211 185 73 216 217 219 238 60 89 96 77 40 21 9 360 3 199 187 157 160 163 164 165 161 148 153 180 192 211 192
83 138 147 90 132 132 78 53 119 114 202 204 213 144 153 112 145 144 132 132 250 172 206 208 337 225 234 227 220 107 165 129 82 56 60 54 44 35 43 57 67 92 130 152 163 156 159 161 170 142 148 150 193 182
114 111 99 79 50 124 120 138 202 216 211 164 133 161 215 166 120 59 185 148 308 348 232 219 236 238 233 319 301 152 180 176 134 115 107 81 53 50 61 76 83 106 139 154 167 172 154 172 147 217 226 208 246 227
87 70 59 49 315 141 154 144 233 236 188 137 213 192 221 213 193 216 216 213 221 216 213 220 244 219 271 318 261 289 194 208 240 212 184 153 158 177 191 315 287 125 177 160 176 249 200 230 246 219 237 264 248 229
52 27 35 355 32 7 327 173 183 224 142 213 158 208 200 191 210 202 203 202 223 226 237 246 264 271 316 296 288 270 245 255 266 278 287 265 210 243 255 241 213 245 254 231 235 243 251 254 250 260 283 247 238 252
104 62 2 41 240 173 236 168 302 120 217 124 182 204 211 206 208 207 200 216 231 239 237 259 264 292 263 233 243 239 267 271 240 264 261 263 261 254 251 253 248 248 250 232 206 226 286 229 227 241 238 219 198 194
155 214 205 197 203 185 147 209 214 172 201 165 177 208 192 197 160 142 228 223 230 47 331 308 304 285 284 289 283 266 257 261 263 259 254 254 263 268 268 263 256 256 260 254 249 253 253 271 235 239 247 231 241 245
172 238 219 191 209 124 172 176 173 205 187 201 203 204 183 164 153 220 240 136 82 36 87 354 315 302 272 241 260 276 277 265 274 269 262 262 260 258 257 256 257 256 255 261 263 258 250 247 254 257 241 246 243 247
233 167 206 216 167 191 178 171 173 200 198 154 206 203 155 179 217 220 178 95 151 91 4 338 321 320 307 302 291 281 265 260 271 274 268 262 261 259 260 257 254 254 255 255 249 250 254 258 256 252 248 241 240 247
124 125 295 51 110 292 61 181 140 17 13 191 191 76 216 245 250 121 70 65 111 21 352 323 307 304 298 299 296 292 295 302 292 268 261 268 270 266 263 263 264 256 243 241 248 256 253 249 250 255 252 247 239 253
40 91 100 29 318 285 228 96 6 274 231 318 15 308 218 216 138 74 121 64 351 339 319 303 293 289 286 287 287 287 290 283 268 272 283 281 279 276 271 266 260 263 267 265 264 245 249 254 251 244 243 246 239 220
24 341 6 18 37 46 346 304 357 30 43 2 297 240 329 26 63 58 52 17 345 323 305 292 281 275 279 282 281 280 274 268 268 268 265 258 253 247 246 247 249 260 269 272 265 255 249 251 253 249 244 235 234 229
189 46 292 80 71 332 358 36 52 65 13 334 307 37 74 56 52 57 16 341 322 307 307 307 301 294 284 273 268 265 263 262 259 255 252 255 255 245 240 240 243 242 234 236 227 234 251 254 253 260 261 243 236 233
74 341 4 19 65 38 67 124 115 159 177 111 178 145 91 76 134 160 26 350 337 329 320 312 303 299 295 297 300 297 290 278 266 265 271 267 262 261 248 236 230 231 238 246 243 222 195 228 237 246 250 258 225 208
310 281 111 41 39 91 150 134 100 76 61 45 60 48 74 97 215 55 4 346 335 329 328 326 321 314 302 304 301 300 297 295 295 287 272 264 260 252 242 232 223 229 231 233 228 229 207 201 218 213 218 221 219 214
199 205 202 148 145 155 127 189 213 236 154 233 90 64 116 236 280 262 334 344 347 340 329 323 317 311 314 306 300 296 283 293 299 294 292 286 280 238 237 237 214 213 220 211 218 218 217 214 217 213 210 216 221 210
208 166 175 173 190 212 190 192 190 175 126 123 127 25 42 25 349 310 294 300 339 339 329 323 312 304 303 306 310 305 309 309 302 296 301 293 302 315 282 199 186 172 172 185 212 222 214 219 221 214 209 214 219 217